"Pseudo-MPEC" for P11bVpp

Created 2021 Jan 14 5:07:19 UT using Find_Orb

Click here for an explanation of pseudo-MPECs

 
 Astrometry: 
     P11bVpp  C2021 01 12,Exnv-aGS1@OeSHAstrometrytZg]BmF17F78Kx01x.%t@Ao+xqIF51
     P11bVpp  C2021 01 12k)g(%ZN6LuMNgRxc$`CxctKI6#redacted;@_$1BE9A8R@Z^L`6jF51
     P11bVpp  C2021 01 12ev3=SP7Xy'\?@:*=_w???1q5QQsXclicklcHW:5tm?f%sm;lhUw+F51
     P11bVpp 1C2021 01 13.04091 08 06 51.56 +42 16 27.4    ~1D4b 20.3 VVNEOCP033
     P11bVpp 1C2021 01 13.08619 08 05 33.97 +42 13 53.3    ~1D3b 20.7 VVNEOCP033
     P11bVpp 1C2021 01 13.08734 08 05 32.14 +42 13 49.5    ~1D3b 21.3 VVNEOCP033
     P11bVpp KC2021 01 13.23868608 01 33.48 +42 06 29.6    ~1D67 20.09GVNEOCPI52
     P11bVpp KC2021 01 13.24233908 01 26.77 +42 06 17.9    ~1D67 20.58GVNEOCPI52
     P11bVpp KC2021 01 13oNJ4m5`)A7Vy)@!:46i[/U`(VuD1LOZSoHiUQ0Fac*[dxoTgP=vk104
     P11bVpp KC2021 01 13FSGuw2!Mm!ZIIqT3qPUQ:TGHAQfrBfKC;HVO#=0here?A3jOG;EQ104
     P11bVpp KC2021 01 13qwlKxnFO4LCo;F%1u(O_!JsEytaEKXvq]t@)#T)/ES$EX6A;?Zpi104
     P11bVpp KC2021 01 13SB'#AS5=$rkD!oyWxbW+fwYuX)deEam(7F$/7Ie`B9dyD*VbaSu\203
     P11bVpp KC2021 01 131YGw$bD'jDrjH(\KmBMi5ki4vEP]RL?d_@;c(_DM)==+yyWlv^[1K63
     P11bVpp KC2021 01 13P$E#v=V6ta1i$m(I@e@8p?7'e3fyp%DP\tmlv]@7n/bk?\forV9tK63
     P11bVpp KC2021 01 13MX2.wytwxDVwt9qg_HK_siU5[Nr7glyXMv2!N0F*atwYb]'gc@:,K63
     P11bVpp KC2021 01 13PPg$H%FnwE'$v9$#.e`DC%]`yxl)NZ.P9.xj-%o)O-vUpa/V_LSd203
     P11bVpp IC2021 01 13c9=a_Gis/sf=rWJQ.JUoFde-sulyN0=A'X'(H7ug.Gx3y$u#3jIwL01
     P11bVpp KC2021 01 1300J+V$ZfA!Gy\P!7AQ$*xV=QZ8Tm\#Dl3nRiL2/mgexplanationL01
     P11bVpp KC2021 01 131G$a;\SsfRO]]/O8V2oTX]0Ovjv!CBF]RyV?++VCn,[$r*XPAZaHL01
     P11bVpp KC2021 01 14.16903207 29 34.30 +40 40 18.9    ~1E4b 20.30GVNEOCPI52
     P11bVpp KC2021 01 14.17100807 29 29.18 +40 40 03.6    ~1E4b 19.81GVNEOCPI52
     P11bVpp KC2021 01 14.17298407 29 24.25 +40 39 49.4    ~1E4b 19.45GVNEOCPI52
     P11bVpp KC2021 01 14.17496307 29 19.17 +40 39 35.6    ~1E4b 19.86GVNEOCPI52

Station data:
(033) Karl Schwarzschild Observatory, Tautenburg  (N50.980140 E11.711240)
   Germany. 1.3-m Schmidt.
(104) San Marcello Pistoiese  (N44.063037 E10.804200)  Italy. 0.40-m f/5
   reflector.
(203) GiaGa Observatory  (N45.541408 E8.995500)  Italy. 0.13-m f/6.4
   refractor.
(F51) Pan-STARRS 1, Haleakala  (N20.707235 W156.255910)  US/Hawaii.
   Observers N. Primak, A. Schultz, S. Watters, J. Thiel, T. Goggia. Measurer
   PS1 Science Consortium. 1.8-m Ritchey-Chrétien + CCD.
(I52) Steward Observatory, Mt. Lemmon Station  (N32.442547 W110.788920)
   US/Arizona.  Observers T. A. Pruyne, B. M. Africano, E. J. Christensen, G.
   A. Farneth, D. C. Fuls, A. R. Gibbs, A. D. Grauer, H. Gröller, J. A.
   Johnson, R. A. Kowalski, S. M. Larson, G. J. Leonard, D. Rankin, R. L.
   Seaman, F. C. Shelly. 1.0-m reflector + CCD.
(K63) G. Pascoli Observatory, Castelvecchio Pascoli  (N44.082410 E10.462000)
   Italy.
(L01) Višnjan Observatory, Tičan  (N45.290900 E13.749300)  Croatia.
   Observers K. Korlević, E. Pettarin. Measurer E. Pettarin. 1.0-m f/2.9
   reflector + CCD.

Orbital elements:  P11bVpp
   Perihelion 2021 Mar 30.634838 +/- 0.0470989 TT = 15:14:10 (JD 2459304.134838)
Epoch 2021 Jan 14.0 TT = JDT 2459228.5   Earth MOID: 0.0064   Me: 0.0947
M 272.46852357 +/- 0.0697533        (J2000 ecliptic)          AutoNEOCP
n   1.15729045 +/- 0.000205499      Peri.  307.16061 +/- 0.0060147
a   0.89847873 +/- 0.000106359      Node   295.81048 +/- 0.0009569
e   0.3928888 +/- 0.000503367       Incl.   14.42261 +/- 0.0250635
P   0.85/311.07d           H 27.0   G  0.15   U  7.1  
q 0.54547647 +/- 0.000390444    Q 1.25148098 +/- 0.000596146
From 23 observations 2021 Jan. 12-14 (41.3 hr); mean residual 0".42
Residuals in arcseconds: 
210112 F51  .06+  .16+    210113 104  .14+  .07-    210113 L01  .62-  .03+    
210112 F51  .98-  .02-    210113 104  .33-  .10-    210113 L01  .08-  .15-    
210112 F51  .35+  .10+    210113 104  .47-  .61+    210113 L01  .11-  .00     
210113 033  .12-  .25-    210113 203  .39+  .20+    210114 I52  .90+  .44+    
210113 033  .17-  .29-    210113 K63  .31-  .33+    210114 I52  .24-  .59-    
210113 033  1.5+  .00     210113 K63  .46-  .22+    210114 I52  .85+  .47-    
210113 I52  .08+  .04+    210113 K63  .50-  .28-    210114 I52  .40+  .11+    
210113 I52  .23+  .15-    210113 203  .04-  .05-    

Ephemerides (geocentric):
Date (UTC) HH   RA              Dec         delta   r     elong  mag " sig PA
---- -- -- --  -------------   -----------  ------ ------ -----  --- ---- ---
2021 01 14 05  07 27 40.654   +40 35 11.00  .02924 1.0112 160.4 20.3 .245 103
2021 01 14 06  07 25 56.371   +40 29 20.14  .02897 1.0110 160.5 20.3 .263 102
2021 01 14 07  07 24 10.449   +40 23 16.58  .02870 1.0107 160.5 20.3 .282 101
2021 01 14 08  07 22 22.862   +40 16 59.88  .02843 1.0104 160.5 20.3 .302 100
2021 01 14 09  07 20 33.585   +40 10 29.56  .02817 1.0102 160.5 20.2 .323  99
2021 01 14 10  07 18 42.593   +40 03 45.12  .02790 1.0099 160.4 20.2 .346  98
2021 01 14 11  07 16 49.859   +39 56 46.05  .02764 1.0097 160.4 20.2 .369  97
2021 01 14 12  07 14 55.359   +39 49 31.82  .02737 1.0094 160.4 20.2 .394  96
2021 01 14 13  07 12 59.067   +39 42 01.89  .02711 1.0092 160.3 20.2 .420  95
2021 01 14 14  07 11 00.958   +39 34 15.70  .02685 1.0089 160.3 20.1 .447  94
2021 01 14 15  07 09 01.008   +39 26 12.66  .02660 1.0087 160.2 20.1 .475  93
2021 01 14 16  07 06 59.193   +39 17 52.16  .02634 1.0084 160.2 20.1 .505  92
2021 01 14 17  07 04 55.488   +39 09 13.59  .02608 1.0082 160.1 20.1 .537  91
2021 01 14 18  07 02 49.871   +39 00 16.30  .02583 1.0079 160.0 20.1 .570  90
2021 01 14 19  07 00 42.318   +38 50 59.64  .02558 1.0077 159.9 20.0 .605  89
2021 01 14 20  06 58 32.807   +38 41 22.91  .02532 1.0074 159.8 20.0 .641  88
2021 01 14 21  06 56 21.316   +38 31 25.42  .02507 1.0072 159.6 20.0 .679  88
2021 01 14 22  06 54 07.826   +38 21 06.45  .02483 1.0069 159.5 20.0 .719  87
2021 01 14 23  06 51 52.316   +38 10 25.26  .02458 1.0067 159.3 20.0 .761  86
2021 01 15 00  06 49 34.767   +37 59 21.07  .02434 1.0064 159.1 19.9 .805  85
2021 01 15 01  06 47 15.162   +37 47 53.10  .02409 1.0062 159.0 19.9 .851  84
2021 01 15 02  06 44 53.483   +37 36 00.56  .02385 1.0059 158.8 19.9 .899  83
2021 01 15 03  06 42 29.716   +37 23 42.62  .02361 1.0057 158.5 19.9 .949  83
2021 01 15 04  06 40 03.846   +37 10 58.44  .02338 1.0054 158.3 19.9 1.00  82
2021 01 15 05  06 37 35.861   +36 57 47.15  .02314 1.0052 158.1 19.9 1.06  81
2021 01 15 06  06 35 05.750   +36 44 07.88  .02291 1.0049 157.8 19.9 1.11  80
2021 01 15 07  06 32 33.503   +36 29 59.73  .02268 1.0047 157.5 19.8 1.17  80
2021 01 15 08  06 29 59.114   +36 15 21.80  .02245 1.0044 157.2 19.8 1.24  79
2021 01 15 09  06 27 22.577   +36 00 13.16  .02223 1.0041 156.9 19.8 1.30  78
2021 01 15 10  06 24 43.888   +35 44 32.87  .02200 1.0039 156.5 19.8 1.37  77
2021 01 15 11  06 22 03.046   +35 28 19.97  .02178 1.0036 156.2 19.8 1.44  77
2021 01 15 12  06 19 20.052   +35 11 33.53  .02156 1.0034 155.8 19.8 1.52  76
2021 01 15 13  06 16 34.910   +34 54 12.56  .02135 1.0031 155.4 19.8 1.59  75
2021 01 15 14  06 13 47.626   +34 36 16.10  .02113 1.0029 155.0 19.8 1.67  75
2021 01 15 15  06 10 58.208   +34 17 43.18  .02092 1.0026 154.6 19.8 1.76  74
2021 01 15 16  06 08 06.669   +33 58 32.82  .02071 1.0024 154.2 19.7 1.84  73
2021 01 15 17  06 05 13.023   +33 38 44.07  .02051 1.0021 153.7 19.7 1.93  73
2021 01 15 18  06 02 17.288   +33 18 15.96  .02031 1.0019 153.2 19.7 2.03  72
2021 01 15 19  05 59 19.483   +32 57 07.55  .02011 1.0016 152.7 19.7 2.13  71
2021 01 15 20  05 56 19.634   +32 35 17.92  .01991 1.0013 152.2 19.7 2.23  71
2021 01 15 21  05 53 17.767   +32 12 46.15  .01972 1.0011 151.6 19.7 2.33  70
2021 01 15 22  05 50 13.913   +31 49 31.36  .01953 1.0008 151.1 19.7 2.44  69
2021 01 15 23  05 47 08.107   +31 25 32.71  .01935 1.0006 150.5 19.7 2.55  69
2021 01 16 00  05 44 00.386   +31 00 49.38  .01917 1.0003 149.9 19.7 2.67  68
2021 01 16 01  05 40 50.792   +30 35 20.61  .01899 1.0001 149.2 19.7 2.79  67
2021 01 16 02  05 37 39.369   +30 09 05.68  .01881 0.9998 148.6 19.7 2.92  67
2021 01 16 03  05 34 26.167   +29 42 03.92  .01864 0.9996 147.9 19.7 3.05  66
2021 01 16 04  05 31 11.239   +29 14 14.75  .01848 0.9993 147.2 19.7 3.18  65